• Join FlightAware (Why Join?)
  • Login
  • US Flag 
02:16AM EDT


 

Airport Tracker/Info


-or-


 

Live Flight TrackerFlight Track Log ✈ FLG4116 ✈ 07-May-2013 ✈ KMSP - KMSN

Flight Track Log - Related Links

Times and Time Zones

All times are in EDT time to prevent confusion due to time zone crossing. See the FLG4116 flight status page for this flight to view local times or setup timezone preferences in your user account.

Time Position Orientation Groundspeed Altitude Reporting Facility
EDT Latitude Longitude Course Direction KTS MPH feet Rate Location/Type
08:26AM 44.9000 -93.2333 115° Southeast 163 188 2,100  Level Minneapolis TRACON
08:27AM 44.9331 -93.2483 342° North 189 217 3,500 1,980 Climbing Minneapolis Center
08:28AM 44.9875 -93.2117 25° Northeast 241 277 5,900 2,760 Climbing Minneapolis Center
08:29AM 44.7358 -92.8749 110° East  Level Estimated
08:29AM 45.0375 -93.1256 51° Northeast 283 326 9,200  Level Minneapolis Center
08:30AM 44.7213 -92.7421 99° East  Level FlightAware Approximate
08:30AM 44.9914 -93.0025 118° Southeast 312 359 11,600  Level Minneapolis Center
08:31AM 44.6712 -92.6279 118° Southeast  Level Estimated
08:31AM 44.9325 -92.8939 127° Southeast 344 396 13,900  Level Minneapolis Center
08:32AM 44.6210 -92.5138 115° Southeast  Level Estimated
08:32AM 44.8736 -92.7756 125° Southeast 366 421 15,000  Level Minneapolis Center
08:33AM 44.8153 -92.6539 124° Southeast 372 428 15,000  Level Minneapolis Center
08:34AM 44.7586 -92.5364 124° Southeast 363 418 15,000  Level Minneapolis Center
08:35AM 44.7133 -92.4417 124° Southeast 365 420 15,000  Level Minneapolis Center
08:37AM 44.6464 -92.3031 124° Southeast 359 413 15,000  Level Minneapolis Center
08:38AM 44.5814 -92.1719 125° Southeast 360 414 15,000  Level Minneapolis Center
08:39AM 44.5219 -92.0486 124° Southeast 356 410 15,000  Level Minneapolis Center
08:40AM 44.4672 -91.9350 124° Southeast 356 410 15,000  Level Minneapolis Center
08:41AM 44.4117 -91.8217 124° Southeast 356 410 15,000  Level Minneapolis Center
08:42AM 44.3517 -91.6997 125° Southeast 356 410 15,000  Level Minneapolis Center
08:43AM 44.2950 -91.5853 125° Southeast 362 417 15,000  Level Minneapolis Center
08:44AM 44.2231 -91.4394 125° Southeast 357 411 15,000  Level Minneapolis Center
08:45AM 44.1650 -91.3219 125° Southeast 354 407 15,000  Level Minneapolis Center
08:46AM 44.1094 -91.2122 125° Southeast 358 412 15,000  Level Minneapolis Center
08:47AM 44.0503 -91.0939 125° Southeast 358 412 15,000  Level Minneapolis Center
08:48AM 43.9903 -90.9744 125° Southeast 362 417 15,000  Level Minneapolis Center
08:49AM 43.9303 -90.8567 125° Southeast 358 412 15,000  Level Minneapolis Center
08:50AM 43.8703 -90.7383 125° Southeast 361 415 15,000  Level Minneapolis Center
08:51AM 43.8153 -90.6306 125° Southeast 357 411 15,000 -660 Level Minneapolis Center
08:52AM 43.7561 -90.5144 125° Southeast 355 409 13,700 -1,500 Descending Minneapolis Center
08:53AM 43.6983 -90.4031 126° Southeast 343 395 11,900 -1,320 Descending Minneapolis Center
08:54AM 43.6419 -90.2933 125° Southeast 337 388 11,000 -420 Descending Minneapolis Center
08:55AM 43.5844 -90.1819 125° Southeast 342 394 11,000  Level Minneapolis Center
08:56AM 43.5194 -90.0564 125° Southeast 334 384 11,000  Level Minneapolis Center
08:57AM 43.4633 -89.9492 126° Southeast 335 386 11,000 -360 Level Minneapolis Center
08:59AM 43.4056 -89.8639 133° Southeast 311 358 10,300 -1,080 Descending Minneapolis Center
08:59AM 43.3767 -89.8317 141° Southeast 298 343 9,400 -1,980 Descending Chicago Center
09:00AM 43.3189 -89.7642 140° Southeast 282 325 7,300 -1,920 Descending Chicago Center
09:01AM 43.2594 -89.6992 141° Southeast 274 315 5,500 -1,620 Descending Chicago Center
09:02AM 43.2039 -89.6378 141° Southeast 265 305 4,000 -780 Descending Chicago Center
09:03AM 43.1400 -89.5678 141° Southeast 255 293 4,000  Level Chicago Center
09:04AM 43.0900 -89.5147 142° Southeast 239 275 4,000  Level Chicago Center